TimeCST,TemperatureF,Dew PointF,Humidity,Sea Level PressureIn,VisibilityMPH,Wind Direction,Wind SpeedMPH,Gust SpeedMPH,PrecipitationIn,Events,Conditions,WindDirDegrees,DateUTC
12:15 AM,29.7,12.4,49,29.84,10.0,WNW,4.6,-,N/A,,Clear,290,2012-12-13 06:15:00
12:35 AM,31.1,13.5,48,29.85,10.0,West,6.9,-,N/A,,Clear,270,2012-12-13 06:35:00
12:55 AM,32.7,14.7,48,29.85,10.0,West,6.9,-,N/A,,Clear,260,2012-12-13 06:55:00
1:15 AM,32.0,14.7,49,29.85,10.0,Calm,Calm,-,N/A,,Clear,0,2012-12-13 07:15:00
1:35 AM,31.8,14.4,49,29.86,10.0,WSW,4.6,-,N/A,,Clear,240,2012-12-13 07:35:00
1:55 AM,32.0,14.9,49,29.87,10.0,Calm,Calm,-,N/A,,Clear,0,2012-12-13 07:55:00
2:15 AM,27.3,14.4,58,29.88,10.0,WSW,3.5,-,N/A,,Clear,250,2012-12-13 08:15:00
2:35 AM,27.0,14.2,59,29.89,10.0,Calm,Calm,-,N/A,,Clear,0,2012-12-13 08:35:00
2:55 AM,24.6,14.2,65,29.89,10.0,WNW,5.8,-,N/A,,Clear,290,2012-12-13 08:55:00
3:15 AM,24.3,14.4,66,29.89,10.0,WNW,6.9,-,N/A,,Clear,300,2012-12-13 09:15:00
3:35 AM,27.0,15.8,63,29.89,10.0,WNW,10.4,-,N/A,,Clear,290,2012-12-13 09:35:00
3:55 AM,31.8,17.2,55,29.89,10.0,WNW,8.1,-,N/A,,Clear,290,2012-12-13 09:55:00
4:15 AM,32.0,17.4,55,29.89,10.0,WNW,6.9,-,N/A,,Clear,290,2012-12-13 10:15:00
4:35 AM,31.6,17.6,56,29.89,10.0,WNW,6.9,-,N/A,,Clear,300,2012-12-13 10:35:00
4:55 AM,34.3,18.1,52,29.90,10.0,West,11.5,-,N/A,,Clear,280,2012-12-13 10:55:00
5:15 AM,33.1,18.0,54,29.90,10.0,West,10.4,-,N/A,,Clear,280,2012-12-13 11:15:00
5:35 AM,32.0,17.6,55,29.91,10.0,West,10.4,-,N/A,,Clear,270,2012-12-13 11:35:00
5:55 AM,32.9,18.0,54,29.92,10.0,West,8.1,-,N/A,,Clear,280,2012-12-13 11:55:00
6:15 AM,32.9,17.8,54,29.93,10.0,WNW,8.1,-,N/A,,Clear,290,2012-12-13 12:15:00
6:35 AM,30.4,17.4,59,29.95,10.0,WNW,5.8,-,N/A,,Clear,290,2012-12-13 12:35:00
6:55 AM,29.5,17.6,61,29.96,10.0,WNW,6.9,-,N/A,,Clear,290,2012-12-13 12:55:00
7:15 AM,26.6,16.9,67,29.96,10.0,WNW,6.9,-,N/A,,Clear,290,2012-12-13 13:15:00
7:35 AM,28.6,17.4,63,29.96,10.0,WNW,6.9,-,N/A,,Clear,300,2012-12-13 13:35:00
7:55 AM,31.1,18.3,59,29.96,10.0,WNW,10.4,-,N/A,,Clear,300,2012-12-13 13:55:00
8:15 AM,32.0,18.1,57,29.97,10.0,NW,5.8,9.2,N/A,,Clear,310,2012-12-13 14:15:00
8:35 AM,32.0,18.1,57,29.97,10.0,NNW,5.8,-,N/A,,Clear,330,2012-12-13 14:35:00
8:55 AM,30.2,18.3,61,29.97,10.0,Calm,Calm,-,N/A,,Clear,0,2012-12-13 14:55:00
9:15 AM,34.9,19.8,54,29.98,10.0,Calm,Calm,-,N/A,,Clear,0,2012-12-13 15:15:00
9:35 AM,36.5,20.8,53,29.99,10.0,North,3.5,-,N/A,,Clear,350,2012-12-13 15:35:00
9:55 AM,37.2,21.4,53,30.01,10.0,Calm,Calm,-,N/A,,Clear,0,2012-12-13 15:55:00
10:15 AM,39.0,22.1,51,30.01,10.0,Calm,Calm,-,N/A,,Clear,0,2012-12-13 16:15:00
10:35 AM,40.3,22.6,49,30.02,10.0,Calm,Calm,-,N/A,,Clear,0,2012-12-13 16:35:00
10:55 AM,40.8,22.8,49,30.02,10.0,North,3.5,-,N/A,,Clear,10,2012-12-13 16:55:00
11:15 AM,42.4,22.8,46,30.03,10.0,Calm,Calm,-,N/A,,Clear,0,2012-12-13 17:15:00
11:35 AM,44.1,22.6,43,30.03,10.0,Calm,Calm,-,N/A,,Clear,0,2012-12-13 17:35:00
11:55 AM,45.0,22.5,41,30.02,10.0,Calm,Calm,-,N/A,,Clear,0,2012-12-13 17:55:00
12:15 PM,45.5,22.3,40,30.03,10.0,South,3.5,-,N/A,,Clear,170,2012-12-13 18:15:00
12:35 PM,44.8,22.1,41,30.03,10.0,Calm,Calm,-,N/A,,Clear,0,2012-12-13 18:35:00
12:55 PM,45.0,21.9,40,30.03,10.0,SSW,8.1,-,N/A,,Clear,200,2012-12-13 18:55:00
1:15 PM,45.0,21.4,39,30.02,10.0,South,6.9,-,N/A,,Clear,190,2012-12-13 19:15:00
1:35 PM,45.0,21.0,39,30.02,10.0,SW,5.8,-,N/A,,Clear,220,2012-12-13 19:35:00
1:55 PM,45.9,20.1,36,30.01,10.0,SW,5.8,-,N/A,,Clear,230,2012-12-13 19:55:00
2:15 PM,46.4,19.2,34,30.00,10.0,WSW,5.8,-,N/A,,Clear,240,2012-12-13 20:15:00
2:35 PM,46.9,18.5,32,29.99,10.0,SW,5.8,-,N/A,,Clear,220,2012-12-13 20:35:00
2:55 PM,47.3,18.3,32,29.99,10.0,South,4.6,-,N/A,,Clear,190,2012-12-13 20:55:00
3:15 PM,47.5,18.1,31,29.99,10.0,SSW,5.8,-,N/A,,Clear,200,2012-12-13 21:15:00
3:35 PM,47.8,18.0,31,29.98,10.0,Calm,Calm,-,N/A,,Clear,0,2012-12-13 21:35:00
3:55 PM,47.3,18.0,31,29.98,10.0,Calm,Calm,-,N/A,,Clear,0,2012-12-13 21:55:00
4:15 PM,46.6,18.1,32,29.97,10.0,Calm,Calm,-,N/A,,Clear,0,2012-12-13 22:15:00
4:35 PM,43.9,17.6,35,29.97,10.0,SSE,3.5,-,N/A,,Clear,150,2012-12-13 22:35:00
6:15 PM,33.4,16.7,50,29.97,10.0,Calm,Calm,-,N/A,,Clear,0,2012-12-14 00:15:00
7:15 PM,30.7,17.1,57,29.97,10.0,South,8.1,-,N/A,,Clear,170,2012-12-14 01:15:00
7:35 PM,36.0,18.3,49,29.97,10.0,South,3.5,-,N/A,,Clear,170,2012-12-14 01:35:00
8:15 PM,35.1,18.9,52,29.97,10.0,South,8.1,-,N/A,,Clear,180,2012-12-14 02:15:00
8:35 PM,34.7,18.7,52,29.97,10.0,South,6.9,-,N/A,,Clear,190,2012-12-14 02:35:00
8:55 PM,36.5,19.2,50,29.97,10.0,South,9.2,-,N/A,,Clear,190,2012-12-14 02:55:00
9:15 PM,36.7,19.0,49,29.97,10.0,South,9.2,-,N/A,,Clear,180,2012-12-14 03:15:00
9:35 PM,37.8,19.0,47,29.97,10.0,South,6.9,-,N/A,,Clear,190,2012-12-14 03:35:00
9:55 PM,30.4,18.1,60,29.97,10.0,Calm,Calm,-,N/A,,Clear,0,2012-12-14 03:55:00
10:15 PM,34.9,19.4,53,29.96,10.0,South,8.1,-,N/A,,Clear,180,2012-12-14 04:15:00
10:35 PM,32.9,18.7,56,29.96,10.0,South,5.8,-,N/A,,Clear,170,2012-12-14 04:35:00
10:55 PM,34.5,19.4,54,29.96,10.0,South,8.1,-,N/A,,Clear,170,2012-12-14 04:55:00
11:15 PM,36.3,19.9,52,29.95,10.0,South,9.2,-,N/A,,Clear,180,2012-12-14 05:15:00
11:35 PM,31.6,19.2,60,29.95,10.0,SSE,3.5,-,N/A,,Clear,150,2012-12-14 05:35:00
11:55 PM,29.8,18.7,63,29.95,10.0,Calm,Calm,-,N/A,,Clear,0,2012-12-14 05:55:00